When you browse on this site, cookies collect data to enhance your experience and personalize the content and advertising you see.
Visit our Privacy Policy to learn more. By continuing to use the site, you agree to this use of cookies and data.
  • In Hungary
  • List of Countries
  • For 7 days
  • Water Temperature
  • Satellite Maps
  • Weather Map
  • News
  • Weather Widgets
  • user-avatar
    Login

    Hourly Weather Chhatapur

    Today, 19 November, Monday

    Time Temperature Precipitation Wind Pressure Humidity
    00:00 +19°C° 0 mm 2 mps 756 mmHg 54%
    01:00 +18°C° 0 mm 2 mps 756 mmHg 56%
    02:00 +18°C° 0 mm 2 mps 756 mmHg 59%
    03:00 +18°C° 0 mm 2 mps 756 mmHg 62%
    04:00 +17°C° 0 mm 2 mps 756 mmHg 64%
    05:00 +17°C° 0 mm 2 mps 757 mmHg 65%
    06:00 +17°C° 0 mm 2 mps 757 mmHg 67%
    07:00 +19°C° 0 mm 2 mps 757 mmHg 63%
    08:00 +20°C° 0 mm 2 mps 758 mmHg 58%
    09:00 +22°C° 0 mm 3 mps 758 mmHg 54%
    10:00 +25°C° 0 mm 2 mps 758 mmHg 49%
    11:00 +26°C° 0 mm 2 mps 758 mmHg 44%
    12:00 +28°C° 0 mm 2 mps 758 mmHg 40%
    13:00 +28°C° 0 mm 2 mps 757 mmHg 37%
    14:00 +29°C° 0 mm 1 mps 756 mmHg 35%
    15:00 +29°C° 0 mm 1 mps 756 mmHg 33%
    16:00 +28°C° 0 mm 1 mps 756 mmHg 36%
    17:00 +26°C° 0 mm 1 mps 756 mmHg 39%
    18:00 +24°C° 0 mm 1 mps 756 mmHg 43%
    19:00 +24°C° 0 mm 1 mps 756 mmHg 44%
    20:00 +23°C° 0 mm 1 mps 757 mmHg 46%
    21:00 +22°C° 0 mm 1 mps 757 mmHg 48%
    22:00 +22°C° 0 mm 1 mps 757 mmHg 49%
    23:00 +21°C° 0 mm 1 mps 757 mmHg 51%

    Tomorrow, 20 November, Tuesday

    Time Temperature Precipitation Wind Pressure Humidity
    00:00 +20°C° 0 mm 2 mps 757 mmHg 53%
    01:00 +19°C° 0 mm 2 mps 756 mmHg 55%
    02:00 +19°C° 0 mm 2 mps 756 mmHg 58%
    03:00 +19°C° 0 mm 1 mps 756 mmHg 60%
    04:00 +18°C° 0 mm 2 mps 756 mmHg 62%
    05:00 +18°C° 0 mm 2 mps 756 mmHg 64%
    06:00 +17°C° 0 mm 2 mps 756 mmHg 66%
    07:00 +19°C° 0 mm 2 mps 757 mmHg 62%
    08:00 +20°C° 0 mm 2 mps 757 mmHg 58%
    09:00 +23°C° 0 mm 2 mps 758 mmHg 54%
    10:00 +25°C° 0 mm 2 mps 757 mmHg 49%
    11:00 +26°C° 0 mm 2 mps 757 mmHg 45%
    12:00 +28°C° 0 mm 2 mps 757 mmHg 40%
    13:00 +28°C° 0 mm 2 mps 756 mmHg 38%
    14:00 +29°C° 0 mm 2 mps 755 mmHg 36%
    15:00 +29°C° 0 mm 2 mps 755 mmHg 34%
    16:00 +27°C° 0 mm 1 mps 755 mmHg 38%
    17:00 +26°C° 0 mm 1 mps 755 mmHg 41%
    18:00 +24°C° 0 mm 1 mps 755 mmHg 45%
    19:00 +24°C° 0 mm 1 mps 756 mmHg 46%
    20:00 +23°C° 0 mm 1 mps 756 mmHg 48%
    21:00 +22°C° 0 mm 1 mps 757 mmHg 50%
    22:00 +21°C° 0 mm 2 mps 757 mmHg 52%
    23:00 +20°C° 0 mm 2 mps 756 mmHg 54%

    Day after tomorrow, 21 November, Wednesday

    Time Temperature Precipitation Wind Pressure Humidity
    00:00 +20°C° 0 mm 2 mps 756 mmHg 57%
    01:00 +19°C° 0 mm 2 mps 756 mmHg 59%
    02:00 +19°C° 0 mm 2 mps 756 mmHg 62%
    03:00 +19°C° 0 mm 1 mps 755 mmHg 65%
    04:00 +18°C° 0 mm 2 mps 756 mmHg 67%
    05:00 +17°C° 0 mm 2 mps 756 mmHg 69%
    06:00 +17°C° 0 mm 2 mps 756 mmHg 72%
    07:00 +19°C° 0 mm 2 mps 757 mmHg 68%
    08:00 +20°C° 0 mm 3 mps 757 mmHg 63%
    09:00 +22°C° 0 mm 3 mps 758 mmHg 59%
    10:00 +24°C° 0 mm 3 mps 758 mmHg 54%
    11:00 +26°C° 0 mm 3 mps 757 mmHg 49%
    12:00 +27°C° 0 mm 3 mps 757 mmHg 44%
    13:00 +28°C° 0 mm 2 mps 756 mmHg 42%
    14:00 +28°C° 0 mm 2 mps 756 mmHg 39%
    15:00 +29°C° 0 mm 1 mps 755 mmHg 36%
    16:00 +27°C° 0 mm 1 mps 755 mmHg 40%
    17:00 +26°C° 0 mm 1 mps 755 mmHg 43%
    18:00 +24°C° 0 mm 1 mps 755 mmHg 47%
    19:00 +24°C° 0 mm 1 mps 756 mmHg 49%
    20:00 +23°C° 0 mm 2 mps 757 mmHg 51%
    21:00 +21°C° 0 mm 2 mps 757 mmHg 53%
    22:00 +21°C° 0 mm 2 mps 757 mmHg 56%
    23:00 +20°C° 0 mm 2 mps 757 mmHg 58%

    22 November, Thursday

    Time Temperature Precipitation Wind Pressure Humidity
    00:00 +20°C° 0 mm 2 mps 757 mmHg 61%
    01:00 +19°C° 0 mm 2 mps 757 mmHg 63%
    02:00 +19°C° 0 mm 2 mps 757 mmHg 64%
    03:00 +20°C° 0 mm 1 mps 756 mmHg 66%
    04:00 +19°C° 0 mm 1 mps 756 mmHg 68%
    05:00 +19°C° 0 mm 1 mps 757 mmHg 69%
    06:00 +19°C° 0 mm 1 mps 757 mmHg 71%
    07:00 +20°C° 0 mm 1 mps 757 mmHg 65%
    08:00 +22°C° 0 mm 1 mps 758 mmHg 60%
    09:00 +24°C° 0 mm 1 mps 759 mmHg 54%
    10:00 +25°C° 0 mm 1 mps 758 mmHg 49%
    11:00 +27°C° 0 mm 1 mps 758 mmHg 43%
    12:00 +29°C° 0 mm 1 mps 758 mmHg 38%
    13:00 +29°C° 0 mm 1 mps 757 mmHg 36%
    14:00 +29°C° 0 mm 1 mps 756 mmHg 34%
    15:00 +30°C° 0 mm 1 mps 756 mmHg 32%
    16:00 +28°C° 0 mm 1 mps 756 mmHg 35%
    17:00 +27°C° 0 mm 1 mps 756 mmHg 39%
    18:00 +25°C° 0 mm 1 mps 756 mmHg 42%
    19:00 +24°C° 0 mm 1 mps 757 mmHg 43%
    20:00 +24°C° 0 mm 1 mps 757 mmHg 45%
    21:00 +23°C° 0 mm 1 mps 758 mmHg 46%
    22:00 +22°C° 0 mm 1 mps 758 mmHg 47%
    23:00 +22°C° 0 mm 1 mps 757 mmHg 49%

    23 November, Friday

    Time Temperature Precipitation Wind Pressure Humidity
    00:00 +21°C° 0 mm 1 mps 757 mmHg 50%
    01:00 +21°C° 0 mm 1 mps 757 mmHg 52%
    02:00 +20°C° 0 mm 1 mps 756 mmHg 53%
    03:00 +20°C° 0 mm 1 mps 756 mmHg 54%
    04:00 +20°C° 0 mm 1 mps 756 mmHg 56%
    05:00 +19°C° 0 mm 1 mps 756 mmHg 57%
    06:00 +17°C° 0 mm 0 mps 756 mmHg 58%
    07:00 +19°C° 0 mm 0 mps 757 mmHg 54%
    08:00 +20°C° 0 mm 0 mps 758 mmHg 49%
    09:00 +22°C° 0 mm 0 mps 758 mmHg 45%
    10:00 +26°C° 0 mm 1 mps 758 mmHg 41%
    11:00 +27°C° 0 mm 1 mps 758 mmHg 37%
    12:00 +29°C° 0 mm 1 mps 757 mmHg 33%
    13:00 +29°C° 0 mm 2 mps 756 mmHg 31%
    14:00 +30°C° 0 mm 2 mps 756 mmHg 30%
    15:00 +30°C° 0 mm 2 mps 755 mmHg 29%
    16:00 +28°C° 0 mm 2 mps 755 mmHg 32%
    17:00 +26°C° 0 mm 2 mps 755 mmHg 36%
    18:00 +25°C° 0 mm 2 mps 755 mmHg 39%
    19:00 +24°C° 0 mm 2 mps 756 mmHg 41%
    20:00 +23°C° 0 mm 2 mps 756 mmHg 42%
    21:00 +21°C° 0 mm 2 mps 756 mmHg 44%
    22:00 +22°C° 0 mm 1 mps 756 mmHg 45%
    23:00 +21°C° 0 mm 1 mps 756 mmHg 47%

    24 November, Saturday

    Time Temperature Precipitation Wind Pressure Humidity
    00:00 +21°C° 0 mm 1 mps 756 mmHg 48%
    01:00 +20°C° 0 mm 1 mps 756 mmHg 50%
    02:00 +20°C° 0 mm 1 mps 755 mmHg 51%
    03:00 +19°C° 0 mm 1 mps 755 mmHg 53%
    04:00 +19°C° 0 mm 1 mps 756 mmHg 53%
    05:00 +19°C° 0 mm 1 mps 756 mmHg 54%
    06:00 +18°C° 0 mm 1 mps 756 mmHg 55%
    07:00 +20°C° 0 mm 1 mps 757 mmHg 51%
    08:00 +21°C° 0 mm 1 mps 757 mmHg 47%
    09:00 +23°C° 0 mm 2 mps 758 mmHg 43%
    10:00 +25°C° 0 mm 2 mps 758 mmHg 40%
    11:00 +26°C° 0 mm 1 mps 757 mmHg 36%
    12:00 +28°C° 0 mm 1 mps 757 mmHg 33%
    13:00 +28°C° 0 mm 1 mps 756 mmHg 32%
    14:00 +29°C° 0 mm 1 mps 755 mmHg 30%
    15:00 +29°C° 0 mm 1 mps 755 mmHg 29%
    16:00 +28°C° 0 mm 1 mps 755 mmHg 32%
    17:00 +26°C° 0 mm 1 mps 756 mmHg 35%
    18:00 +24°C° 0 mm 1 mps 756 mmHg 39%
    19:00 +24°C° 0 mm 1 mps 756 mmHg 40%
    20:00 +23°C° 0 mm 1 mps 756 mmHg 41%
    21:00 +22°C° 0 mm 1 mps 757 mmHg 41%
    22:00 +22°C° 0 mm 1 mps 757 mmHg 43%
    23:00 +21°C° 0 mm 1 mps 756 mmHg 45%
    Show more